{"data":{"norad_id":55368,"intl_designator":"2023-013AP","name":"STARLINK-5625","alt_names":[],"object_type":"PAYLOAD","status":"ACTIVE","operator":null,"country":"US","launch_date":"2023-01-26","launch_site_code":"AFETR","launch_vehicle":null,"mission":null,"orbit_class":"UNKNOWN","rcs_meters":null,"size_class":null,"mass_kg":null,"dimensions":null,"purposes":["comms"],"wikipedia_slug":null,"has_3d_model":false,"image_url":null,"decayed_at":null,"tle_current":{"epoch":"2026-05-25T04:16:37.834752Z","epoch_age_seconds":55718,"freshness":"FRESH","line1":"1 55368U 23013AP  26145.17821568 -.00000064  00000+0  72199-5 0  9995","line2":"2 55368  43.0049 216.5304 0001959 276.9267  83.1361 15.27576379183548","mean_motion":15.27576379,"eccentricity":0.0001959,"inclination_deg":43.0049,"raan_deg":216.5304,"arg_perigee_deg":276.9267,"mean_anomaly_deg":83.1361,"bstar":7.2199e-6,"rev_number":18354,"period_min":94.266972165586,"perigee_km":481.71583015744,"apogee_km":484.404047118,"semimajor_km":6861.1969386377,"source":"CELESTRAK","updated_at":"2026-05-25T13:38:17.767384Z"}}}